RH
1 1 1 1 1 1 1 2 2 2 3 3 2 2 2 3 6 8 9 23 24 28 26 22 22 19 19 26 30 28 29 34 30 32 25 28 27 28 26 27 40 47 44 47 41
1 1 1 1 1 1 1 1 2 2 2 3 3 3 3 3 9 9 15 21 31 31 29 27 24 22 24 32 30 30 27 21 26 27 31 30 28 28 26 30 40 41 45 42 37
1 1 1 1 1 1 1 1 1 2 2 2 3 3 3 3 10 15 12 13 13 11 14 23 26 22 29 35 42 35 23 24 34 30 28 26 29 31 29 49 63 54 40 36 33
1 1 1 1 1 1 1 1 1 1 2 2 3 4 4 5 6 17 14 13 11 10 11 20 27 23 30 37 44 36 42 37 36 32 29 28 30 34 51 73 58 47 40 35 32
1 1 1 1 1 1 1 1 1 1 2 2 3 4 5 7 12 13 12 10 10 11 14 23 27 32 30 38 38 49 43 38 40 34 33 32 35 38 63 59 49 39 34 32 30
1 1 1 1 1 1 1 1 1 2 2 2 3 4 5 9 11 12 12 11 10 10 16 21 32 34 38 43 38 36 34 33 33 34 34 36 30 30 56 53 43 37 35 32 30
1 1 1 1 1 1 1 2 2 2 2 3 4 6 8 14 15 15 14 13 11 9 15 22 30 30 33 35 35 33 34 29 28 31 34 32 39 34 54 41 38 39 38 34 32
1 1 1 1 2 2 3 3 3 4 5 7 8 10 17 21 20 14 13 12 11 10 9 10 16 28 32 31 23 27 27 22 18 28 22 31 37 54 55 42 48 41 38 35 32
2 2 3 4 4 6 6 6 5 7 8 10 14 13 23 23 19 16 14 12 10 10 13 15 12 25 27 22 17 26 15 30 24 21 21 32 35 64 52 43 53 44 39 36 32
4 6 7 8 8 7 7 6 6 11 7 16 13 14 20 22 19 15 14 12 11 10 14 16 22 42 52 21 19 16 28 37 30 26 20 19 33 62 57 47 56 48 41 36 33
9 9 9 9 8 8 8 5 9 8 11 21 23 22 20 21 20 18 17 14 12 14 18 24 20 20 23 38 30 30 32 36 33 23 21 22 23 50 63 57 58 52 43 38 34
10 10 10 9 8 8 8 7 9 12 26 31 30 26 26 25 22 16 16 15 14 21 19 24 22 26 23 26 37 32 37 40 28 24 22 24 24 54 67 68 62 56 47 40 33
10 10 10 10 9 9 9 10 10 16 17 32 30 26 26 24 21 15 16 16 16 18 20 20 24 25 25 24 28 30 44 31 30 25 25 26 25 60 74 67 61 56 52 45 40
11 11 10 10 10 10 9 9 15 33 30 35 32 25 25 23 24 17 14 15 17 17 18 19 19 21 23 23 24 41 28 27 32 35 37 32 34 41 77 68 59 61 54 48 44
11 11 10 10 11 10 10 9 22 34 46 37 32 26 23 23 23 24 19 16 17 18 18 22 26 24 24 22 20 31 37 41 45 54 58 42 45 30 78 83 68 67 57 50 49
11 10 9 10 11 11 10 12 26 44 41 35 28 28 24 25 28 25 21 17 21 21 25 20 21 21 23 36 31 36 41 45 55 64 79 53 41 40 59 71 78 69 62 52 51
10 8 8 9 12 12 12 14 48 50 22 26 29 29 28 29 30 30 32 34 38 34 29 24 25 27 27 34 36 47 60 71 71 83 63 56 58 65 64 85 68 71 61 53 55
9 7 9 11 13 13 13 26 28 20 25 27 26 28 28 31 32 34 33 41 69 57 46 55 49 30 31 48 47 46 61 70 62 51 33 58 74 63 73 82 75 75 60 54 53
9 9 11 13 15 14 14 46 25 21 27 24 25 29 31 32 30 35 37 57 54 63 45 58 45 34 34 34 41 52 71 60 71 80 93 59 65 60 85 88 85 75 66 54 52
9 9 13 18 19 16 23 31 20 29 28 25 22 22 28 36 32 32 41 54 58 53 47 55 56 38 40 47 57 57 56 76 88 91 100 78 82 68 63 69 79 81 64 53 53
8 10 19 24 24 21 46 30 28 32 27 29 32 31 29 28 35 37 52 54 47 59 45 61 70 50 41 64 67 78 80 81 75 83 91 80 79 72 58 63 71 73 61 61 58
10 15 20 27 28 45 56 53 44 38 34 32 32 35 35 36 38 47 53 50 43 49 66 69 78 77 59 80 85 80 70 72 75 80 98 92 80 92 71 79 74 69 66 62 62
11 20 33 32 35 39 39 37 38 36 37 39 42 40 36 39 52 46 45 35 45 50 70 73 82 92 74 67 78 100 93 84 86 86 86 90 81 91 91 88 83 75 72 70 68
14 30 47 45 36 37 41 45 46 44 38 39 40 42 47 52 50 65 51 37 42 46 45 54 86 75 76 66 71 97 99 95 78 89 78 81 65 64 93 90 85 77 72 78 83
22 43 48 40 57 50 51 54 60 58 54 48 50 51 60 70 66 66 56 54 53 53 53 70 93 94 82 69 74 59 68 95 93 75 87 69 83 65 84 90 86 74 83 96 79
29 48 57 68 61 66 63 76 70 63 65 65 72 59 81 84 78 78 78 76 79 69 79 80 88 76 91 75 79 90 75 74 80 73 92 100 92 82 99 98 84 82 91 89 82
44 50 34 82 91 82 83 75 74 64 59 61 62 76 86 80 71 70 78 80 80 94 90 94 92 93 90 73 91 95 91 86 96 97 96 97 93 100 96 98 91 93 92 89 88
Wind_Speed
9 9 9 9 9 9 9 9 9 8 7 6 4 3 3 4 5 4 5 6 5 4 3 2 2 2 3 5 5 3 4 2 3 5 3 3 3 3 7 9 9 7 7 4 6
8 8 8 9 9 9 9 9 8 8 7 6 5 3 3 4 4 7 7 5 3 3 3 2 2 3 4 4 4 4 3 5 2 2 3 3 4 5 4 7 6 9 9 5 3
8 8 9 9 9 8 8 8 8 8 7 6 5 4 3 3 3 7 7 5 3 3 3 2 3 3 3 3 3 2 3 0 1 2 1 3 3 3 6 4 5 2 3 3 4
9 9 9 8 9 9 8 8 8 7 6 5 5 4 3 4 2 4 5 5 5 4 3 2 1 2 3 3 2 2 1 2 1 2 1 2 3 6 10 7 6 7 6 5 6
9 9 9 9 8 9 9 9 8 8 7 5 4 3 2 3 4 3 5 5 4 3 2 1 1 2 3 3 2 2 1 2 2 2 1 2 5 9 11 8 7 7 6 8 10
9 8 6 7 9 10 11 12 11 11 10 8 5 2 0 4 1 3 3 4 3 2 3 2 3 3 4 2 2 1 1 4 1 2 2 3 6 3 6 7 6 5 9 10 9
6 7 10 12 13 13 12 11 10 9 8 6 4 1 4 4 1 4 3 2 3 3 3 4 3 2 4 3 2 1 2 3 1 1 3 5 3 5 10 8 8 8 8 10 13
11 12 12 12 12 11 11 10 10 8 6 5 3 3 6 5 4 3 5 4 4 4 4 4 2 3 2 4 4 2 4 1 2 2 1 5 4 4 4 5 8 9 10 11 13
11 11 11 10 9 9 10 11 8 6 4 4 3 4 5 6 3 4 5 3 3 3 3 3 3 3 3 4 3 5 3 4 5 5 3 4 1 3 5 6 9 10 11 11 11
10 10 10 9 8 8 9 7 6 3 5 5 7 5 4 2 5 8 7 4 2 1 1 2 3 3 3 3 4 3 3 2 4 4 3 2 2 3 5 7 9 9 10 11 13
10 10 10 9 6 6 8 2 3 2 8 7 5 3 2 5 5 7 5 3 4 4 3 4 3 3 4 1 3 3 3 4 3 1 2 4 2 7 6 7 7 7 9 11 13
10 10 9 8 5 7 8 2 5 2 5 7 5 5 5 5 2 8 5 2 3 3 2 4 2 0 0 1 2 2 1 4 3 1 1 3 8 5 4 3 4 6 8 9 10
9 9 8 7 3 9 10 9 6 5 3 5 7 6 5 6 6 10 7 4 5 3 2 3 3 1 3 2 2 3 4 4 5 3 1 4 8 6 3 7 6 6 7 9 12
8 8 8 9 3 9 8 11 9 5 3 3 4 4 4 3 4 7 6 4 4 2 2 2 1 2 2 2 5 2 1 1 2 2 4 2 7 3 5 7 4 3 5 8 11
8 7 8 8 5 6 8 11 10 2 4 2 3 2 4 5 1 4 7 3 3 2 3 2 3 2 3 2 4 1 5 4 3 3 3 2 2 3 6 5 7 3 3 6 10
8 8 8 8 4 6 9 11 5 4 5 2 1 4 2 4 3 4 3 3 3 2 2 4 1 1 2 4 3 10 5 6 4 2 3 7 9 6 4 3 3 4 0 5 9
8 9 8 7 3 5 9 7 4 4 2 2 2 4 3 4 3 5 4 4 0 4 3 4 0 2 3 4 4 5 5 3 4 2 6 1 3 6 3 4 5 6 2 6 9
9 10 9 7 2 3 7 3 2 1 2 0 0 1 1 4 2 4 2 3 2 4 2 1 5 3 1 3 5 3 6 5 7 6 12 2 6 4 3 4 7 6 4 7 11
10 10 8 5 2 1 3 3 5 2 3 1 2 1 0 1 0 2 2 3 4 6 6 2 5 1 1 2 3 3 3 1 3 2 2 4 6 3 3 6 11 12 8 8 12
11 10 8 4 2 1 3 4 2 2 4 1 4 2 2 3 1 1 2 4 2 1 0 2 5 1 3 4 5 4 7 3 2 3 5 3 5 5 4 6 9 13 10 9 12
8 5 5 4 2 1 3 4 2 3 3 3 4 2 4 2 4 3 3 3 3 3 4 4 3 2 2 4 9 1 1 2 3 3 5 10 5 7 8 4 6 9 5 10 14
5 1 4 4 1 2 2 4 3 4 3 2 2 5 5 6 5 5 7 5 10 11 5 4 4 4 8 1 0 3 6 6 6 6 3 2 8 1 4 4 3 3 6 10 14
4 4 4 6 3 2 1 2 3 4 4 4 4 5 2 6 2 6 4 3 12 9 7 6 2 3 6 4 4 3 4 4 3 3 7 9 7 2 6 7 6 4 6 10 14
4 1 2 3 3 5 4 3 2 3 3 4 2 3 3 5 4 3 4 3 9 10 9 6 6 8 15 10 5 3 6 6 9 5 11 10 16 9 6 8 7 4 7 11 13
5 3 4 2 3 3 3 4 3 4 4 5 1 5 5 4 2 5 3 3 7 11 17 5 18 8 16 19 9 15 10 8 12 17 12 16 9 9 3 4 3 5 7 9 13
5 5 4 4 4 5 4 4 6 2 5 4 4 4 3 5 7 8 6 5 10 5 5 5 15 17 22 20 19 18 17 14 18 19 11 2 7 3 2 1 1 4 4 8 15
8 7 3 6 5 3 4 3 4 6 2 1 1 1 4 7 15 19 18 18 15 7 10 7 8 9 17 10 11 12 8 12 2 1 2 6 2 0 2 4 4 3 5 12 17
Wind_Direction
46 44 40 37 35 30 25 20 19 16 18 25 26 26 28 24 33 25 17 22 17 33 29 59 52 80 77 70 58 72 63 161 216 162 188 166 130 85 83 92 75 75 86 44 27
35 32 29 25 24 20 15 14 12 9 6 11 8 6 17 33 41 48 42 32 59 41 23 29 43 77 81 73 46 70 114 215 221 218 189 148 130 129 126 104 85 79 78 75 51
17 16 16 15 12 10 4 4 5 1 359 354 354 351 358 17 79 41 42 39 17 2 354 4 32 70 95 95 61 110 167 294 47 6 168 137 87 89 125 67 38 77 66 67 46
5 4 4 2 1 358 355 353 351 350 348 353 0 360 360 9 135 30 19 6 356 351 347 328 49 74 76 82 83 117 90 139 147 20 11 62 102 60 44 89 114 95 74 60 49
356 354 357 353 349 348 344 344 342 343 341 347 351 353 347 66 87 19 8 9 8 11 37 59 70 102 118 115 120 129 35 144 213 251 332 83 48 122 91 115 115 99 84 57 48
345 338 335 347 353 347 347 343 342 343 335 335 344 357 344 87 70 8 12 7 11 25 57 86 106 114 101 82 93 96 330 302 303 240 244 141 151 32 144 156 121 94 62 51 43
339 348 1 0 358 348 337 328 328 330 326 328 328 29 86 102 53 356 349 7 34 53 81 86 116 144 136 103 53 65 340 334 54 247 237 165 141 71 145 160 107 74 55 42 36
1 2 358 354 350 335 327 325 328 332 335 341 8 65 97 107 77 52 60 60 71 62 75 83 109 123 83 112 36 64 45 346 28 9 202 178 218 65 126 172 84 62 50 42 36
0 358 356 351 342 334 332 332 337 345 2 9 19 98 90 108 90 53 49 55 68 71 77 96 109 90 100 86 17 13 244 218 321 45 329 193 136 86 92 112 82 59 52 50 46
359 355 353 352 348 345 344 340 339 357 14 57 71 109 94 12 334 330 327 319 238 136 111 65 70 69 40 97 244 211 250 247 263 339 4 277 167 140 76 92 79 64 52 47 40
354 353 356 356 6 2 5 341 345 306 27 55 32 38 356 335 3 4 7 85 97 102 75 30 75 202 218 182 92 106 202 243 243 32 326 255 245 182 145 88 80 62 52 46 41
350 353 355 358 13 15 20 70 52 11 75 63 58 63 43 7 25 25 33 76 61 87 91 29 201 270 87 137 185 182 239 254 273 289 212 312 265 157 152 121 104 79 58 41 34
349 355 358 358 0 11 26 42 31 354 106 66 62 59 35 36 48 20 37 43 62 72 52 170 152 122 132 134 154 197 187 206 241 336 26 318 259 196 94 119 112 85 65 42 25
346 354 1 1 7 5 11 5 1 1 90 8 15 43 24 39 58 37 33 45 36 134 190 221 348 170 137 204 167 247 296 118 114 78 247 343 287 194 175 165 143 93 55 33 19
339 351 358 7 2 12 355 351 353 21 10 17 25 49 17 74 52 27 28 27 116 149 113 256 164 165 179 204 163 133 64 67 76 98 360 148 236 235 130 208 192 162 46 16 10
332 341 347 353 5 7 355 343 347 41 259 62 35 347 39 41 36 354 13 44 83 98 9 258 260 215 152 59 53 146 75 49 54 76 274 214 204 277 185 194 155 188 218 357 355
324 332 337 346 342 5 350 345 24 133 70 20 10 28 31 344 32 32 16 10 10 21 6 335 253 71 123 93 42 70 61 332 323 4 238 162 222 254 239 200 176 187 265 341 348
319 323 325 332 308 8 349 50 151 307 89 154 143 80 308 7 45 15 36 318 351 71 62 102 315 167 132 161 175 177 158 161 239 268 287 153 240 246 213 204 205 231 275 322 337
313 310 304 301 228 10 7 67 220 181 125 108 175 81 34 31 18 20 229 206 220 190 171 133 261 129 60 113 109 157 172 173 85 115 315 245 296 281 284 251 235 237 259 309 333
296 299 281 233 191 78 88 229 181 115 125 126 180 165 232 199 235 112 223 218 212 160 50 236 305 236 135 105 47 159 146 78 14 265 245 272 285 254 278 253 230 231 255 309 327
290 282 239 214 257 159 177 216 155 167 176 162 195 257 222 214 194 207 228 264 174 117 94 147 133 240 99 202 187 155 246 18 146 191 252 272 253 214 219 230 238 225 277 322 328
259 240 236 213 86 62 156 188 164 181 177 183 173 205 203 181 211 229 215 216 174 153 165 215 164 228 226 290 110 163 210 181 218 247 225 269 258 298 218 196 185 242 297 313 321
236 230 237 194 181 210 208 234 215 162 199 166 211 215 162 188 247 201 200 233 173 159 178 186 255 339 312 352 10 211 215 167 149 76 234 252 262 188 205 198 211 258 301 315 323
213 199 136 161 136 139 155 220 218 198 213 184 196 171 140 208 232 242 217 251 197 206 241 204 191 202 250 235 145 209 224 211 203 224 247 237 259 258 214 217 206 266 306 321 330
199 204 165 180 195 136 167 163 183 214 205 204 211 209 171 220 250 238 243 279 267 271 272 240 263 227 245 249 215 245 229 198 206 232 229 254 208 258 240 192 191 302 315 325 331
195 160 133 126 127 130 205 215 198 205 151 235 189 190 152 177 196 245 255 262 256 245 227 225 262 265 270 261 245 242 242 243 229 245 249 137 254 215 163 183 266 291 302 328 328
184 167 155 148 129 136 219 200 202 162 236 233 188 163 241 251 273 282 281 269 252 243 257 250 258 251 265 274 275 266 262 263 225 8 198 213 223 37 81 329 306 240 334 337 328